Location: ???? ?????
(30.0052°N, 31.2891°E)
Time: 19:26:50
(UTC+00:00)

ACS3 Solar Sail - Pass Details

Date: 21 September 2024
Orbit: 960 x 1036 km, 97.4° (Epoch: 09 October)

Event Time Altitude Azimuth Distance (km) Brightness Sun altitude
Exits shadow 17:47:05 48° 66° (ENE) 1,333 2.1 -25.4°
Drops below altitude 10° 17:52:56 10° 2° (N) 2,843 4.4 -26.6°
Enters shadow 19:07:42 -35° 179° (S) 8,876 6.8 -41.4°
